EW4941 Weather Reports


time (UTC)temp
C
wind
direction
speed
KPH
gust
KPH
rain 1hr
cm
rain 24hr
cm
rain mn
cm
humidity
%
barometer
mb
20260507080001 7 0 8.0 19.3 0.00 2.26 0.15 87 1005.5
20260507075500 7 0 11.3 19.3 0.00 2.26 0.15 88 1005.7
20260507074956 7 0 9.7 17.7 0.00 2.26 0.15 88 1005.8
20260507074457 7 0 6.4 17.7 0.00 2.26 0.15 88 1005.7
20260507073956 7 0 6.4 16.1 0.00 2.26 0.15 89 1005.7
20260507073455 7 0 8.0 16.1 0.00 2.26 0.15 89 1005.6
20260507072955 7 0 6.4 14.5 0.00 2.26 0.15 90 1005.9
20260507072454 7 0 4.8 12.9 0.00 2.26 0.15 90 1005.6
20260507071956 7 0 4.8 12.9 0.00 2.26 0.15 91 1005.7
20260507071454 7 0 4.8 12.9 0.00 2.26 0.15 91 1005.8
20260507070955 7 0 4.8 9.7 0.00 2.26 0.15 91 1005.2
20260507070725 7 0 4.8 14.5 0.00 2.26 0.15 92 1005.2
20260507070000 7 0 4.8 14.5 0.00 2.26 0.15 92 1005.6
20260507065954 7 0 4.8 14.5 0.00 2.26 0.15 92 1005.2
20260507064956 7 0 3.2 14.5 0.00 2.26 0.15 92 1005.3
20260507064455 7 0 1.6 8.0 0.00 2.26 0.15 92 1005.1
20260507063954 7 0 0.0 3.2 0.00 2.26 0.15 92 1005.0
20260507063453 7 0 1.6 6.4 0.00 2.26 0.15 92 1004.9
20260507062952 7 0 3.2 8.0 0.00 2.26 0.15 92 1004.9
20260507062725 8 0 4.8 9.7 0.00 2.26 0.15 92 1004.8
20260507061952 8 0 6.4 14.5 0.00 2.26 0.15 92 1004.8
20260507061450 8 0 6.4 14.5 0.00 2.26 0.15 92 1004.8
20260507060950 8 0 4.8 8.0 0.00 2.26 0.15 93 1004.8
20260507060451 8 0 4.8 8.0 0.00 2.26 0.15 93 1004.7
20260507055948 8 0 4.8 12.9 0.00 2.26 0.15 93 1004.8
20260507055449 8 0 4.8 12.9 0.03 2.26 0.15 93 1004.8
20260507054948 8 0 4.8 9.7 0.05 2.26 0.15 93 1004.8
20260507054448 8 0 3.2 8.0 0.05 2.26 0.15 93 1004.6
20260507053946 8 0 3.2 8.0 0.05 2.26 0.15 93 1004.2
20260507053447 8 0 4.8 14.5 0.05 2.26 0.15 93 1004.3
20260507052946 8 0 6.4 14.5 0.08 2.26 0.15 93 1004.3
20260507052716 8 0 6.4 16.1 0.10 2.26 0.15 93 1004.6
20260507051946 8 0 6.4 16.1 0.15 2.26 0.15 93 1004.8
20260507051446 8 0 6.4 17.7 0.15 2.26 0.15 93 1004.7
20260507050944 8 0 8.0 17.7 0.15 2.26 0.15 93 1004.8
20260507050445 8 0 6.4 16.1 0.15 2.26 0.15 93 1004.9
20260507045944 8 0 6.4 14.5 0.15 2.26 0.15 93 1004.8
20260507045444 8 0 6.4 14.5 0.13 2.21 0.10 93 1004.9
20260507045217 8 0 8.0 12.9 0.15 2.21 0.10 93 1005.1
20260507044444 8 0 6.4 12.9 0.15 2.21 0.10 93 1005.1
20260507043944 8 0 6.4 12.9 0.20 2.21 0.10 94 1004.9
20260507043444 9 0 8.0 14.5 0.23 2.21 0.10 94 1005.0
20260507043214 9 0 6.4 14.5 0.23 2.18 0.10 94 1004.8
20260507042445 9 0 6.4 12.9 0.25 2.16 0.05 94 1005.0
20260507041943 9 0 8.0 12.9 0.23 2.11 0.00 94 1005.2
20260507041444 9 0 6.4 14.5 0.25 2.11 0.00 94 1005.2
20260507040945 9 0 6.4 14.5 0.25 2.11 0.00 95 1004.8
20260507040447 10 0 6.4 16.1 0.33 2.11 2.11 94 1004.7
20260507040442 9 0 6.4 16.1 0.30 2.11 0.00 95 1004.8
20260507035713 10 0 8.0 14.5 0.36 2.08 2.08 94 1004.7
20260507034941 10 0 8.0 14.5 0.33 2.06 2.06 95 1004.7
20260507034441 10 0 8.0 16.1 0.36 2.06 2.06 95 1004.6
20260507033943 10 0 8.0 16.1 0.30 2.01 2.03 95 1004.6
20260507033441 10 0 8.0 16.1 0.28 1.98 1.98 95 1004.7
20260507032941 11 0 8.0 16.1 0.25 1.96 1.96 95 1004.5
20260507032442 11 0 6.4 16.1 0.20 1.91 1.91 95 1004.5
20260507031941 11 0 6.4 14.5 0.18 1.88 1.88 95 1004.3
20260507031442 11 0 4.8 9.7 0.15 1.85 1.88 95 1004.1
20260507031213 11 0 3.2 9.7 0.18 1.85 1.85 95 1004.0
20260507030713 11 0 3.2 6.4 0.13 1.80 1.83 95 1004.1
20260507025941 11 0 3.2 6.4 0.10 1.78 1.78 95 1004.2
20260507025441 11 0 3.2 6.4 0.05 1.73 1.73 95 1004.1
20260507024942 11 0 3.2 6.4 0.08 1.73 1.73 95 1003.8
20260507024441 11 0 3.2 6.4 0.08 1.70 1.70 95 1003.7
20260507023942 12 0 4.8 8.0 0.08 1.70 1.70 95 1003.8
20260507023439 12 0 1.6 8.0 0.10 1.70 1.70 95 1003.8
20260507022941 12 0 0.0 6.4 0.10 1.70 1.70 95 1003.9
20260507022712 12 0 0.0 0.0 0.10 1.70 1.70 95 1003.8
20260507021938 12 0 1.6 6.4 0.10 1.70 1.70 95 1003.7
20260507021437 12 0 1.6 6.4 0.10 1.70 1.70 95 1003.7
20260507020938 12 0 1.6 6.4 0.08 1.68 1.68 95 1003.8
20260507020435 12 0 4.8 12.9 0.08 1.68 1.68 95 1003.7
20260507020206 12 0 4.8 12.9 0.08 1.68 1.68 95 1003.8
20260507015434 12 0 4.8 14.5 0.08 1.68 1.68 95 1003.8
20260507014933 12 0 4.8 16.1 0.05 1.65 1.65 95 1003.7
20260507014433 11 0 3.2 16.1 0.03 1.63 1.63 95 1003.8
20260507014204 11 0 3.2 9.7 0.03 1.63 1.63 95 1003.8
20260507013434 11 0 3.2 9.7 0.00 1.60 1.60 95 1003.9
20260507013206 11 0 3.2 9.7 0.00 1.60 1.60 95 1004.1
20260507012433 11 0 3.2 14.5 0.00 1.60 1.60 95 1004.0
20260507011932 11 0 4.8 14.5 0.00 1.63 1.60 95 1003.8
20260507011431 11 0 4.8 12.9 0.00 1.68 1.60 95 1003.7
20260507011202 11 0 4.8 12.9 0.00 1.68 1.60 95 1003.6
20260507010432 11 0 4.8 14.5 0.00 1.68 1.60 95 1003.6
20260507005932 11 0 6.4 17.7 0.00 1.68 1.60 95 1003.6
20260507005431 11 0 6.4 17.7 0.00 1.68 1.60 94 1003.7
20260507004930 11 0 6.4 17.7 0.00 1.68 1.60 94 1003.7
20260507004429 11 0 8.0 17.7 0.00 1.68 1.60 94 1003.8
20260507003929 12 0 8.0 16.1 0.00 1.68 1.60 94 1003.8
20260507003430 12 0 6.4 16.1 0.00 1.68 1.60 95 1003.8
20260507002930 12 0 8.0 17.7 0.00 1.68 1.60 95 1003.8
20260507002429 12 0 8.0 17.7 0.00 1.68 1.60 95 1003.8
20260507001930 12 0 8.0 19.3 0.00 1.68 1.60 95 1003.8
20260507001430 12 0 6.4 20.9 0.00 1.68 1.60 95 1003.8
20260507001200 12 0 6.4 20.9 0.00 1.68 1.60 95 1003.7
20260507000429 12 0 8.0 16.1 0.00 1.68 1.60 94 1003.6
20260506235930 12 0 6.4 17.7 0.00 1.68 1.60 94 1003.7
20260506235429 12 0 6.4 17.7 0.00 1.68 1.60 94 1003.7
20260506234929 12 0 6.4 16.1 0.00 1.68 1.60 94 1003.8
20260506234428 12 0 6.4 17.7 0.03 1.68 1.60 94 1003.8
20260506233929 12 0 6.4 17.7 0.05 1.70 1.60 94 1003.8
20260506233427 12 0 4.8 12.9 0.05 1.70 1.60 94 1003.9
20260506232928 12 0 4.8 12.9 0.10 1.70 1.60 94 1004.0
20260506232429 12 0 4.8 17.7 0.15 1.70 1.60 94 1004.0
20260506231927 12 0 4.8 17.7 0.15 1.70 1.60 94 1003.9
20260506231428 12 0 4.8 14.5 0.15 1.70 1.60 94 1004.0
20260506230927 12 0 4.8 16.1 0.15 1.73 1.60 94 1004.0
20260506230427 12 0 4.8 16.1 0.18 1.73 1.60 94 1004.1
20260506225927 12 0 4.8 12.9 0.18 1.75 1.60 94 1004.1
20260506225429 12 0 3.2 8.0 0.20 1.75 1.60 94 1004.2
20260506225158 12 0 3.2 9.7 0.23 1.75 1.60 94 1004.3
20260506224429 12 0 4.8 12.9 0.30 1.75 1.57 94 1004.3
20260506223925 12 0 4.8 14.5 0.51 1.75 1.55 94 1004.4
20260506223427 12 0 4.8 14.5 0.64 1.75 1.55 94 1004.4
20260506222926 12 0 4.8 14.5 0.61 1.68 1.50 94 1004.5
20260506222657 12 0 4.8 9.7 0.66 1.65 1.45 94 1004.6
20260506221926 12 0 4.8 12.9 0.71 1.65 1.45 94 1004.6
20260506221424 12 0 4.8 12.9 0.79 1.65 1.45 94 1004.6
20260506220924 12 0 3.2 9.7 0.81 1.65 1.45 94 1004.7
20260506220422 12 0 3.2 9.7 0.89 1.63 1.42 94 1004.8
20260506215922 12 0 4.8 9.7 0.91 1.63 1.42 94 1004.9
20260506215422 12 0 4.8 9.7 0.91 1.60 1.40 94 1004.9
20260506214918 12 0 6.4 12.9 0.89 1.57 1.40 94 1005.0
20260506214417 12 0 6.4 17.7 0.79 1.45 1.27 94 1005.0
20260506213917 12 0 4.8 17.7 0.61 1.24 1.04 94 1005.2
20260506213416 12 0 4.8 12.9 0.48 1.12 0.91 94 1005.2
20260506212915 12 0 4.8 9.7 0.46 1.07 0.89 94 1005.2
20260506212644 12 0 4.8 9.7 0.41 0.99 0.79 94 1005.1
20260506212417 12 0 4.8 9.7 0.41 0.99 0.79 94 1005.1
20260506211913 12 0 4.8 12.9 0.33 0.91 0.74 94 1005.2
20260506211413 12 0 4.8 19.3 0.28 0.86 0.69 94 1005.2
20260506210912 12 0 4.8 19.3 0.28 0.84 0.64 94 1005.1
20260506210412 12 0 4.8 14.5 0.18 0.74 0.56 94 1005.2
20260506205910 13 0 3.2 8.0 0.18 0.71 0.51 94 1005.1
20260506205640 13 0 3.2 9.7 0.15 0.69 0.48 94 1005.0
20260506204907 12 0 3.2 9.7 0.15 0.69 0.48 94 1005.0
20260506204409 12 0 3.2 9.7 0.13 0.66 0.46 94 1005.0
20260506203905 12 0 4.8 17.7 0.10 0.64 0.43 94 1005.0
20260506203403 12 0 6.4 17.7 0.10 0.61 0.43 93 1005.0
20260506202902 12 0 4.8 17.7 0.10 0.61 0.41 93 1005.1
20260506202408 12 0 3.2 14.5 0.10 0.58 0.38 93 1005.3
20260506202402 12 0 4.8 16.1 0.10 0.58 0.38 93 1005.3
20260506201403 12 0 3.2 12.9 0.10 0.58 0.38 93 1005.3
20260506200902 12 0 4.8 14.5 0.08 0.56 0.36 93 1005.4
20260506200405 12 0 4.8 14.5 0.10 0.56 0.36 93 1005.5
20260506195902 12 0 3.2 12.9 0.10 0.53 0.33 93 1005.4
20260506195404 12 0 4.8 14.5 0.13 0.53 0.33 93 1005.5
20260506194902 12 0 4.8 14.5 0.20 0.53 0.33 93 1005.4
20260506194634 12 0 4.8 12.9 0.25 0.53 0.33 93 1005.6
20260506193904 12 0 4.8 9.7 0.25 0.53 0.33 93 1005.6
20260506193403 12 0 4.8 12.9 0.25 0.51 0.30 93 1005.7
20260506193134 12 0 4.8 12.9 0.28 0.51 0.30 92 1005.6
20260506192410 12 0 4.8 14.5 0.25 0.48 0.28 92 1005.5
20260506192405 12 0 4.8 14.5 0.25 0.48 0.28 92 1005.6
20260506191408 13 0 4.8 9.7 0.28 0.48 0.28 92 1005.7
20260506191402 12 0 4.8 9.7 0.28 0.48 0.28 92 1005.6
20260506190401 13 0 4.8 9.7 0.25 0.46 0.25 91 1005.8
20260506190134 13 0 4.8 9.7 0.23 0.43 0.23 91 1005.9
20260506185402 13 0 4.8 14.5 0.20 0.41 0.20 91 1006.1
20260506184900 13 0 3.2 14.5 0.13 0.33 0.13 90 1006.1
20260506184400 13 0 1.6 6.4 0.08 0.28 0.08 90 1006.1
20260506184126 13 0 1.6 6.4 0.08 0.28 0.08 89 1005.9
20260506183355 13 0 3.2 8.0 0.05 0.25 0.05 89 1005.8
20260506182854 13 0 4.8 16.1 0.03 0.23 0.03 88 1005.8
20260506182356 14 0 4.8 16.1 0.03 0.23 0.03 87 1005.8
20260506181855 14 0 3.2 9.7 0.03 0.23 0.03 86 1005.8
20260506181356 14 0 3.2 8.0 0.00 0.20 0.00 85 1005.9
20260506180854 15 0 3.2 9.7 0.00 0.20 0.00 84 1005.9
20260506180354 15 0 3.2 9.7 0.00 0.20 0.00 84 1006.0
20260506175854 15 0 3.2 9.7 0.00 0.20 0.00 83 1006.0
20260506175356 15 0 4.8 9.7 0.00 0.20 0.00 83 1006.0
20260506175126 15 0 3.2 9.7 0.00 0.20 0.00 83 1006.0
20260506174351 15 0 3.2 6.4 0.00 0.20 0.00 83 1006.1
20260506173851 15 0 3.2 9.7 0.00 0.20 0.00 83 1006.1
20260506173351 15 0 4.8 14.5 0.00 0.20 0.00 82 1006.2
20260506172850 15 0 6.4 14.5 0.00 0.20 0.00 81 1006.3
20260506172351 15 0 6.4 14.5 0.00 0.20 0.00 81 1006.4
20260506171850 15 0 4.8 14.5 0.00 0.20 0.00 80 1006.5
20260506171352 15 0 4.8 14.5 0.00 0.20 0.00 80 1006.5
20260506170850 15 0 3.2 14.5 0.00 0.20 0.00 80 1006.6
20260506170619 16 0 3.2 8.0 0.00 0.20 0.00 81 1006.9
20260506165849 15 0 4.8 12.9 0.00 0.20 0.00 80 1007.0
20260506165348 16 0 3.2 12.9 0.00 0.20 0.00 80 1007.2
20260506164846 16 0 3.2 9.7 0.00 0.20 0.00 80 1007.2
20260506164347 16 0 4.8 9.7 0.00 0.20 0.00 80 1007.2
20260506163846 16 0 4.8 16.1 0.00 0.20 0.00 80 1007.4
20260506163346 16 0 4.8 16.1 0.00 0.20 0.00 80 1007.4
20260506162846 15 0 3.2 8.0 0.00 0.20 0.00 80 1007.5
20260506162346 15 0 3.2 8.0 0.00 0.20 0.00 82 1007.8
20260506161845 15 0 3.2 8.0 0.00 0.20 0.00 81 1007.8
20260506161345 15 0 3.2 12.9 0.00 0.20 0.00 81 1007.8
20260506161116 15 0 3.2 12.9 0.00 0.20 0.00 80 1007.8
20260506160344 15 0 3.2 8.0 0.00 0.20 0.00 82 1008.0
20260506155846 15 0 3.2 9.7 0.00 0.20 0.00 81 1008.1
20260506155345 15 0 3.2 9.7 0.00 0.20 0.00 80 1008.2
20260506154849 15 0 3.2 8.0 0.00 0.20 0.00 80 1008.2
20260506154844 15 0 3.2 8.0 0.00 0.20 0.00 80 1008.3
20260506153844 15 0 1.6 8.0 0.00 0.20 0.00 80 1008.2
20260506153344 15 0 1.6 8.0 0.00 0.20 0.00 80 1008.2
20260506152844 15 0 3.2 12.9 0.00 0.20 0.00 80 1008.2
20260506152342 15 0 1.6 12.9 0.00 0.20 0.00 80 1008.1
20260506151843 15 0 0.0 1.6 0.00 0.20 0.00 80 1008.1
20260506151345 15 0 1.6 6.4 0.00 0.20 0.00 80 1008.2
20260506150844 15 0 1.6 8.0 0.00 0.20 0.00 81 1008.1
20260506150342 15 0 3.2 9.7 0.00 0.20 0.00 80 1008.0
20260506145844 15 0 1.6 9.7 0.00 0.20 0.00 80 1007.9
20260506145343 15 0 0.0 6.4 0.00 0.20 0.00 81 1008.0
20260506144840 15 0 1.6 6.4 0.00 0.20 0.00 81 1008.0
20260506144343 15 0 0.0 4.8 0.00 0.20 0.00 81 1007.9
20260506143840 15 0 0.0 0.0 0.00 0.20 0.00 81 1007.8
20260506143338 15 0 0.0 0.0 0.00 0.20 0.00 81 1007.9
20260506142837 15 0 0.0 0.0 0.00 0.20 0.00 82 1007.9
20260506142339 14 0 0.0 0.0 0.00 0.20 0.00 84 1008.0
20260506142110 14 0 0.0 0.0 0.00 0.20 0.00 83 1008.2
20260506141337 13 0 0.0 0.0 0.00 0.20 0.00 84 1008.3
20260506140835 13 0 0.0 0.0 0.00 0.20 0.00 83 1008.4
20260506140332 13 0 0.0 0.0 0.00 0.20 0.00 84 1008.4
20260506135829 13 0 0.0 0.0 0.00 0.20 0.00 83 1008.6
20260506135331 13 0 0.0 0.0 0.00 0.20 0.00 84 1008.6
20260506134828 13 0 0.0 0.0 0.00 0.20 0.00 84 1008.6
20260506134600 13 0 0.0 0.0 0.00 0.20 0.00 84 1008.6
20260506133828 13 0 0.0 1.6 0.00 0.20 0.00 84 1008.6
20260506133328 13 0 1.6 4.8 0.00 0.20 0.00 84 1008.6
20260506132830 13 0 1.6 4.8 0.00 0.20 0.00 85 1008.5
20260506132329 13 0 0.0 4.8 0.00 0.20 0.00 84 1008.5
20260506131827 13 0 0.0 3.2 0.00 0.20 0.00 84 1008.5
20260506131329 13 0 1.6 3.2 0.00 0.20 0.00 84 1008.6
20260506130825 13 0 1.6 4.8 0.00 0.20 0.00 84 1008.4
20260506130327 13 0 0.0 4.8 0.00 0.20 0.00 84 1008.5
20260506125824 13 0 1.6 4.8 0.00 0.20 0.00 84 1008.5
20260506125326 13 0 3.2 4.8 0.00 0.20 0.00 85 1008.5
20260506125055 12 0 3.2 4.8 0.00 0.20 0.00 85 1008.5
20260506124325 12 0 1.6 4.8 0.00 0.20 0.00 85 1008.5
20260506123825 13 0 1.6 4.8 0.00 0.20 0.00 85 1008.8
20260506123554 12 0 1.6 4.8 0.00 0.20 0.00 86 1008.8
20260506122824 12 0 1.6 4.8 0.00 0.20 0.00 86 1008.8
20260506122326 12 0 1.6 4.8 0.00 0.20 0.00 87 1008.8
20260506121823 12 0 0.0 3.2 0.00 0.20 0.00 88 1009.0
20260506121324 12 0 0.0 3.2 0.00 0.20 0.00 89 1009.0
20260506120825 12 0 0.0 1.6 0.00 0.20 0.00 89 1009.2
20260506120555 11 0 1.6 4.8 0.00 0.20 0.00 89 1009.2
20260506115824 11 0 1.6 4.8 0.00 0.20 0.00 89 1009.2
20260506115326 11 0 1.6 6.4 0.00 0.20 0.00 89 1009.2
20260506114825 11 0 3.2 6.4 0.00 0.20 0.00 89 1009.1
20260506114321 11 0 3.2 9.7 0.00 0.20 0.00 90 1009.2
20260506113818 11 0 3.2 9.7 0.00 0.20 0.00 90 1009.1
20260506113547 11 0 1.6 6.4 0.00 0.20 0.00 90 1009.6
20260506112816 11 0 1.6 6.4 0.00 0.20 0.00 90 1009.5
20260506112544 11 0 0.0 6.4 0.00 0.20 0.00 91 1009.5
20260506111811 11 0 0.0 0.0 0.00 0.20 0.00 92 1009.5
20260506111313 11 0 0.0 0.0 0.00 0.20 0.00 92 1009.5
20260506110814 11 0 0.0 0.0 0.00 0.20 0.00 92 1009.3
20260506110308 11 0 0.0 0.0 0.00 0.20 0.00 92 1009.2
20260506105806 10 0 0.0 0.0 0.00 0.20 0.00 92 1009.3
20260506105306 10 0 0.0 0.0 0.00 0.20 0.00 92 1009.5
20260506105035 10 0 0.0 0.0 0.00 0.20 0.00 92 1009.1
20260506104535 10 0 0.0 0.0 0.00 0.20 0.00 93 1009.2
20260506103806 10 0 0.0 0.0 0.00 0.20 0.00 93 1009.1
20260506103304 10 0 0.0 4.8 0.00 0.20 0.00 92 1009.1
20260506102801 10 0 0.0 4.8 0.00 0.20 0.00 93 1009.1
20260506102305 10 0 1.6 6.4 0.00 0.20 0.00 93 1009.0
20260506101802 10 0 0.0 6.4 0.00 0.20 0.00 93 1009.0
20260506101302 10 0 0.0 0.0 0.00 0.20 0.00 92 1009.1
20260506100801 10 0 0.0 0.0 0.00 0.20 0.00 92 1009.2
20260506100532 10 0 0.0 0.0 0.00 0.20 0.00 92 1009.3
20260506095800 10 0 0.0 0.0 0.00 0.20 0.00 92 1009.3
20260506095305 10 0 0.0 0.0 0.00 0.20 0.00 92 1009.3
20260506095029 10 0 0.0 0.0 0.00 0.20 0.00 92 1009.2
20260506094301 10 0 0.0 0.0 0.00 0.20 0.00 92 1009.1
20260506093759 10 0 0.0 0.0 0.00 0.20 0.00 93 1009.1
20260506093301 10 0 0.0 0.0 0.00 0.20 0.00 93 1009.0
20260506092759 10 0 0.0 0.0 0.00 0.20 0.00 93 1008.9
20260506092300 10 0 0.0 0.0 0.00 0.20 0.00 93 1008.8
20260506091759 10 0 0.0 0.0 0.00 0.20 0.00 93 1008.8
20260506091257 10 0 0.0 1.6 0.00 0.20 0.00 93 1008.8
20260506090757 10 0 0.0 1.6 0.00 0.20 0.00 93 1008.7
20260506090258 10 0 0.0 1.6 0.00 0.20 0.00 93 1008.7
20260506085758 10 0 1.6 3.2 0.00 0.20 0.00 93 1008.6
20260506085257 10 0 1.6 3.2 0.00 0.20 0.00 92 1008.5
20260506084757 10 0 1.6 3.2 0.00 0.20 0.00 92 1008.5
20260506084257 10 0 0.0 4.8 0.00 0.20 0.00 92 1008.7
20260506083758 10 0 0.0 4.8 0.00 0.20 0.00 92 1008.7
20260506083259 10 0 0.0 0.0 0.00 0.20 0.00 92 1008.9
20260506083026 10 0 0.0 0.0 0.00 0.20 0.00 92 1008.8
20260506082255 10 0 0.0 0.0 0.00 0.20 0.00 92 1008.9
20260506081755 10 0 0.0 1.6 0.00 0.20 0.00 92 1008.9
20260506081527 10 0 0.0 3.2 0.00 0.20 0.00 92 1008.9
20260506080756 10 0 1.6 4.8 0.00 0.20 0.00 91 1009.0
20260506080254 10 0 1.6 8.0 0.00 0.20 0.00 91 1009.0